Tracking 19903 objects as of 16-Oct-2019
HD Live streaming from Space Station
objects crossing your sky now

COSMOS 1823 DEB

Track COSMOS 1823 DEB now!
10-day predictions


NORAD ID: 19006
Int'l Code: 1987-020BB
Perigee: 992.1 km
Apogee: 1,092.1 km
Inclination: 73.4 °
Period: 105.9 minutes
Semi major axis: 7413 km
RCS: 0.0433 m2 (small)
Launch date: February 20, 1987
Source: Commonwealth of Independent States (former USSR) (CIS)
Launch site: PLESETSK MISSILE AND SPACE COMPLEX (PKMTR)

Note: This is SATELLITE DEBRIS
aabbcc
Your satellite tracking list
Your tracking list is empty




NASA's NSSDC Master Catalog

Two Line Element Set (TLE):
1 19006U 87020BB  19288.28986719 +.00004542 +00000-0 +60111-2 0  9997
2 19006 073.4492 266.5483 0067463 266.9288 214.3960 13.60193455509611
Source of the keplerian elements: AFSPC